EW3966 Weather Reports


Display with metric or nautical units.
time (UTC)temp
F
wind
direction
speed
MPH
gust
MPH
rain 1hr
in
rain 24hr
in
rain mn
in
humidity
%
barometer
mb
20260503224013 39 6 1.0 5.0 0.00 0.00 0.00 97 1006.4
20260503223512 39 26 2.0 6.0 0.00 0.00 0.00 97 1006.6
20260503223012 39 54 3.0 6.0 0.00 0.00 0.00 97 1006.7
20260503222510 39 82 2.0 7.0 0.00 0.00 0.00 97 1006.8
20260503221513 39 74 5.0 7.0 0.00 0.00 0.00 97 1006.9
20260503221016 39 66 4.0 7.0 0.00 0.00 0.00 97 1006.8
20260503220514 39 74 2.0 6.0 0.00 0.00 0.00 97 1006.9
20260503220011 39 72 3.0 6.0 0.00 0.00 0.00 97 1006.8
20260503215510 39 64 4.0 6.0 0.00 0.00 0.00 97 1006.8
20260503215010 39 56 2.0 7.0 0.00 0.00 0.00 97 1006.9
20260503214509 40 51 4.0 7.0 0.00 0.00 0.00 97 1006.8
20260503214009 40 66 4.0 7.0 0.00 0.00 0.00 97 1006.9
20260503213509 40 72 3.0 6.0 0.00 0.00 0.00 97 1006.9
20260503213009 40 58 3.0 7.0 0.00 0.00 0.00 97 1007.2
20260503212507 40 68 3.0 9.0 0.00 0.00 0.00 97 1007.3
20260503211505 41 38 2.0 5.0 0.00 0.00 0.00 97 1007.7
20260503211005 41 52 1.0 4.0 0.00 0.00 0.00 97 1007.8
20260503210506 41 52 1.0 3.0 0.00 0.00 0.00 97 1007.8
20260503210005 41 61 0.0 6.0 0.00 0.00 0.00 97 1007.8
20260503205505 41 58 3.0 6.0 0.00 0.00 0.00 97 1007.6
20260503205004 41 72 2.0 6.0 0.00 0.00 0.00 97 1007.7
20260503204504 41 70 1.0 6.0 0.00 0.00 0.00 97 1007.9
20260503204004 41 68 1.0 6.0 0.00 0.00 0.00 97 1007.8
20260503203502 41 60 1.0 6.0 0.00 0.00 0.00 97 1007.8
20260503203003 41 76 4.0 6.0 0.00 0.00 0.00 97 1007.9
20260503202501 41 62 3.0 6.0 0.00 0.00 0.00 97 1008.1
20260503201502 41 69 3.0 6.0 0.00 0.00 0.00 97 1008.2
20260503201006 42 69 2.0 5.0 0.00 0.00 0.00 97 1008.2
20260503200502 41 70 2.0 5.0 0.00 0.00 0.00 97 1008.2
20260503200001 41 70 3.0 5.0 0.00 0.00 0.00 97 1008.1
20260503195600 41 70 3.0 5.0 0.00 0.00 0.00 97 1008.1
20260503195102 41 68 2.0 5.0 0.00 0.00 0.00 97 1008.2
20260503194600 41 60 1.0 6.0 0.00 0.00 0.00 97 1008.2
20260503194059 41 68 1.0 6.0 0.00 0.00 0.00 97 1008.3
20260503193558 41 70 2.0 5.0 0.00 0.00 0.00 97 1008.4
20260503193059 41 78 0.0 7.0 0.00 0.00 0.00 97 1008.5
20260503192602 41 64 3.0 7.0 0.00 0.00 0.00 97 1008.5
20260503191559 41 68 3.0 6.0 0.00 0.00 0.00 97 1008.6
20260503191059 42 57 3.0 7.0 0.00 0.00 0.00 97 1008.6
20260503190659 42 67 4.0 7.0 0.00 0.00 0.00 97 1008.5
20260503190109 42 70 4.0 6.0 0.00 0.00 0.00 97 1008.6
20260503185558 43 60 3.0 6.0 0.00 0.00 0.00 97 1008.5
20260503185058 43 74 1.0 7.0 0.00 0.00 0.00 97 1008.5
20260503184604 43 59 3.0 7.0 0.00 0.00 0.00 97 1008.4
20260503184100 43 75 2.0 6.0 0.00 0.00 0.00 97 1008.4
20260503183557 43 56 1.0 7.0 0.00 0.00 0.00 97 1008.6
20260503183059 42 66 1.0 8.0 0.00 0.00 0.00 97 1008.6
20260503182556 42 88 4.0 8.0 0.00 0.00 0.00 96 1008.4
20260503181601 43 51 5.0 8.0 0.00 0.00 0.00 97 1008.5
20260503181056 44 73 3.0 7.0 0.00 0.00 0.00 97 1008.5
20260503180554 44 73 3.0 8.0 0.00 0.00 0.00 97 1008.6
20260503180056 45 60 3.0 6.0 0.00 0.00 0.00 97 1008.7
20260503175552 45 75 2.0 5.0 0.00 0.00 0.00 97 1008.8
20260503175052 45 68 1.0 6.0 0.00 0.00 0.00 97 1009.1
20260503174551 45 77 2.0 6.0 0.00 0.00 0.00 97 1009.2
20260503174052 45 74 3.0 5.0 0.00 0.00 0.00 97 1009.4
20260503173552 45 68 2.0 5.0 0.00 0.00 0.00 97 1009.4
20260503173051 45 77 2.0 5.0 0.00 0.00 0.00 97 1009.6
20260503172552 45 70 1.0 5.0 0.00 0.00 0.00 97 1009.6
20260503171551 45 69 2.0 5.0 0.00 0.00 0.00 97 1009.7
20260503171052 46 67 1.0 4.0 0.00 0.00 0.00 97 1009.7
20260503170552 46 68 1.0 3.0 0.00 0.00 0.00 97 1009.6
20260503150541 42 62 1.0 6.0 0.00 0.00 0.00 97 1010.8
20260503131031 44 74 0.0 2.0 0.00 0.00 0.00 97 1011.6
20260503130531 43 74 0.0 2.0 0.00 0.00 0.00 97 1011.6
20260503110522 40 86 0.0 1.0 0.00 0.00 0.00 97 1012.0
20260503081533 39 203 1.0 2.0 0.00 0.00 0.00 97 1012.4
20260503081019 39 193 0.0 2.0 0.00 0.00 0.00 97 1012.5
20260503080519 39 191 0.0 2.0 0.00 0.00 0.00 97 1012.4
20260503072517 39 58 2.0 6.0 0.00 0.00 0.00 97 1012.6
20260503071519 39 40 5.0 10.0 0.00 0.00 0.00 97 1012.9
20260503071016 39 126 2.0 10.0 0.00 0.00 0.00 97 1012.9
20260503070517 39 64 1.0 4.0 0.00 0.00 0.00 97 1013.2
20260503055011 41 235 1.0 5.0 0.00 0.00 0.00 97 1012.3
20260503054517 40 291 0.0 5.0 0.00 0.00 0.00 97 1012.4
20260503054010 40 305 1.0 4.0 0.00 0.00 0.00 97 1012.8
20260503053511 39 76 1.0 2.0 0.00 0.00 0.00 97 1012.9
20260503053019 39 76 1.0 2.0 0.00 0.00 0.00 97 1012.9
20260503052510 39 76 0.0 5.0 0.00 0.00 0.00 97 1013.1
20260503051512 40 49 3.0 14.0 0.00 0.00 0.00 97 1013.1
20260503051010 40 55 6.0 14.0 0.00 0.00 0.00 97 1013.2
20260503050512 43 38 2.0 7.0 0.00 0.00 0.00 97 1012.9
20260503050009 44 247 0.0 5.0 0.00 0.00 0.00 97 1013.0
20260503045511 44 256 2.0 5.0 0.00 0.00 0.00 97 1012.7
20260503045010 44 266 2.0 5.0 0.00 0.00 0.00 97 1012.7
20260503044510 43 282 2.0 3.0 0.00 0.00 0.00 97 1012.6
20260503044008 43 349 0.0 2.0 0.00 0.00 0.00 97 1012.7
20260503043508 43 32 0.0 4.0 0.00 0.00 0.00 97 1012.8
20260503043012 43 51 0.0 4.0 0.00 0.00 0.00 97 1013.0
20260503042507 43 356 0.0 4.0 0.00 0.00 0.00 97 1012.8
20260503041506 41 350 3.0 9.0 0.00 0.00 0.00 97 1012.9
20260503041007 40 68 1.0 5.0 0.00 0.00 0.00 97 1013.0
20260503040505 40 29 2.0 11.0 0.00 0.00 0.00 97 1013.1
20260503040005 39 73 4.0 11.0 0.00 0.00 0.00 97 1013.3
20260503035504 38 70 1.0 5.0 0.00 0.00 0.00 97 1013.2
20260503035003 39 56 0.0 2.0 0.00 0.00 0.00 97 1013.3
20260503034504 39 56 0.0 4.0 0.00 0.00 0.00 97 1013.1
20260503034001 39 56 0.0 5.0 0.00 0.00 0.00 97 1013.2
20260503033501 39 81 1.0 9.0 0.00 0.00 0.00 97 1013.3
20260503033110 39 57 4.0 9.0 0.00 0.00 0.00 96 1013.4
20260503032558 41 68 2.0 7.0 0.00 0.00 0.00 97 1013.5
20260503031558 44 52 1.0 6.0 0.00 0.00 0.00 97 1013.5
20260503031057 44 104 0.0 2.0 0.00 0.00 0.00 97 1013.6
20260503030557 44 104 0.0 2.0 0.00 0.00 0.00 97 1013.7
20260503030055 44 125 0.0 4.0 0.00 0.00 0.00 97 1013.8
20260503025555 44 95 1.0 4.0 0.00 0.00 0.00 97 1013.9
20260503025053 44 147 0.0 2.0 0.00 0.00 0.00 97 1013.9
20260503024552 43 225 0.0 2.0 0.00 0.00 0.00 97 1013.8
20260503024053 43 225 0.0 2.0 0.00 0.00 0.00 98 1013.8
20260503023550 42 221 0.0 2.0 0.00 0.00 0.00 98 1013.9
20260503023053 42 194 0.0 5.0 0.00 0.00 0.00 98 1014.0
20260503022547 41 141 0.0 5.0 0.00 0.00 0.00 98 1014.1
20260503021548 40 232 1.0 5.0 0.00 0.00 0.00 98 1014.1
20260503021048 40 281 2.0 5.0 0.00 0.00 0.00 98 1014.1
20260503020549 40 267 2.0 5.0 0.00 0.00 0.00 98 1014.1
20260503020048 39 260 2.0 5.0 0.00 0.00 0.00 98 1014.2
20260503015548 39 204 2.0 10.0 0.00 0.00 0.00 98 1014.2
20260503015047 39 230 1.0 10.0 0.00 0.00 0.00 97 1014.4
20260503014547 39 31 1.0 6.0 0.00 0.00 0.00 97 1014.4
20260503014048 39 70 2.0 6.0 0.00 0.00 0.00 97 1014.2
20260503013549 39 59 2.0 6.0 0.00 0.00 0.00 97 1014.2
20260503013047 39 57 2.0 6.0 0.00 0.00 0.00 97 1014.2
20260503012550 39 89 1.0 8.0 0.00 0.00 0.00 97 1014.3
20260503011546 39 60 1.0 5.0 0.00 0.00 0.00 98 1014.1
20260503011046 39 70 2.0 5.0 0.00 0.00 0.00 98 1014.3
20260503010548 39 101 0.0 4.0 0.00 0.00 0.00 98 1014.2
20260503010047 39 65 0.0 4.0 0.00 0.00 0.00 98 1014.3
20260503005547 39 150 1.0 2.0 0.00 0.00 0.00 97 1014.3
20260503005051 39 170 0.0 4.0 0.00 0.00 0.00 98 1014.1
20260503004548 38 170 0.0 4.0 0.00 0.00 0.00 98 1014.2
20260503004047 38 161 1.0 5.0 0.00 0.00 0.00 98 1014.3
20260503003546 38 118 1.0 5.0 0.00 0.00 0.00 98 1014.3
20260503003046 38 171 0.0 5.0 0.00 0.00 0.00 98 1014.4
20260503002546 39 41 0.0 5.0 0.00 0.00 0.00 97 1014.4
20260503001548 39 73 1.0 5.0 0.00 0.00 0.00 98 1014.2
20260503001051 39 57 1.0 4.0 0.00 0.00 0.00 98 1014.2
20260503000547 39 91 0.0 4.0 0.00 0.00 0.00 98 1014.2
20260503000049 39 91 1.0 4.0 0.00 0.00 0.00 98 1014.3
20260502235547 39 197 0.0 5.0 0.00 0.00 0.00 98 1014.2
20260502235047 39 218 1.0 5.0 0.00 0.00 0.00 98 1014.2
20260502234556 38 139 0.0 2.0 0.00 0.00 0.00 98 1014.1
20260502234047 38 137 0.0 5.0 0.00 0.00 0.00 98 1014.2
20260502233547 38 145 1.0 6.0 0.00 0.00 0.00 98 1014.2
20260502233146 38 186 2.0 6.0 0.00 0.00 0.00 98 1014.2
20260502232547 38 184 0.0 2.0 0.00 0.00 0.00 98 1014.1
20260502231555 38 185 1.0 4.0 0.00 0.00 0.00 98 1014.1
20260502231045 38 189 1.0 4.0 0.00 0.00 0.00 98 1014.2
20260502230546 38 252 0.0 4.0 0.00 0.00 0.00 98 1014.2
20260502230045 38 102 0.0 6.0 0.00 0.00 0.00 98 1014.3
20260502225545 38 43 2.0 6.0 0.00 0.00 0.00 97 1014.3
20260502225045 38 56 1.0 3.0 0.00 0.00 0.00 98 1014.1
20260502224544 39 46 0.0 4.0 0.00 0.00 0.00 98 1014.1
20260502224045 39 50 0.0 5.0 0.00 0.00 0.00 98 1014.1